Track IRIDIUM 132 now! 10-day predictions IRIDIUM 132 is classified as:
1 42961U 17061G 26248.80447328 -.00000090 00000-0 -39209-4 0 9993 2 42961 86.4025 351.5595 0002068 94.9108 265.2324 14.34216307466370